Location: Ward Pound Ridge Reservation
(41.2500°N, 73.6000°W)
Time: 13:55:42
(UTC-05:00)

Hubble Space Telescope - Pass Details

Date: 07 October 2017
Orbit: 537 x 541 km, 28.5° (Epoch: 16 December)

Event Time Altitude Azimuth Distance (km) Brightness Sun altitude
Exits shadow 05:37:10 12° 205° (SSW) 1,680 3.0 -15.9°
Maximum altitude 05:38:25 13° 186° (S) 1,600 3.1 -15.7°
Drops below altitude 10° 05:40:21 10° 158° (SSE) 1,787 3.6 -15.3°
Sets 05:43:41 0° 130° (SE) 2,678 5.0 -14.7°
